ELECTRON KICK STAGE R/B, 62086

Orbit data source: Space-Track

ELECTRON KICK STAGE R/B, 62086 is space debris in SSO originally from a launch on Mon, 25 Nov 2024 UTC launched from the Rocket Lab Launch Complex (RLLC). Debris objects in space refer to the collection of defunct objects orbiting the Earth. Examples of debris include non-operational satellites, rocket bodies, and fragments generated from explosions, collisions, or faulty payload assembly.

Loading next visibility...
ELECTRON KICK STAGE R/B details
Identifier
62086, 2024-219F
Orbit
SSO
Last TLE update1 day ago
Origin
Flag of USRocket Lab (US)
ManufacturerRocket Lab
MissionSpacecraft
Bus & MotorELECTRON ST2, Unknown motor
Mass250 kg wet, ~250 kg dry
Launch date (UTC)
2024-11-25 (3 weeks ago)
Launch vehicleUnknown
Launch site
Rocket Lab Launch Complex (RLLC)
Object type
Payload
Rocket body
Debris
Shape & HBRUnknown
Radar Cross SectionMedium (>0.1 m² and <1 m²)

Expand to show TLE details & history

TLE from 1 day ago
0 ELECTRON KICK STAGE R/B
1 62086U 24219F   24347.91990263  .00005326  00000-0  53802-3 0  9996
2 62086  97.9387 146.9421 0057672 339.6497  20.2422 14.90238989  2638
Epoch: 2024-12-12T22:04Z
Definitive object data (Epoch: 2024-12-12T22:04:39.587Z)
Latitude-0.00002°
Longitude93.68384°
Altitude562.501 km
Speed7.601 km/s
True Right ascension09h 47m 46s
True Declination0° 00' 00"
Sunlit
Object was in daylight at TLE epoch
Visualization TLE readout
Latitude-76.41002°
Longitude-120.33372°
Altitude615.81 km
Speed7.555 km/s
Apparent Right ascension08h 43m 39s
Apparent Declination-73° 03' 23"
Sunlit
Object is in daylight
Visualization observer readout
Local Sidereal Time20:19:48
Azimuth183.165° SSW
Elevation-56.733°
Doppler factor1
Orbital elements
Apogee altitude634.43 km
Perigee altitude554.008 km
Semi-major axis6,972.356 km
Eccentricity0.0057672
Inclination97.9387°
RAAN146.9421°
Arg. of periapsis339.6497°
True anomaly20.47241°
Mean anomaly20.2422°
Eccentric anomaly20.35715°
Mean motion3.72798 °/min
BSTAR0.00053802
Orbital period96.57 mins
Loading maneuver chart data...
Loading historical data...
Loading historical data...
Loading historical data...
Loading historical data...
Loading historical data...
Loading historical data...
Loading historical data...

ELECTRON KICK STAGE R/B Visibility forecast

Observer location: undefined°, undefined

Span
Click to sort rows by Start time (UTC) header in descending order
Start Az.
Max El. time (UTC)
Max El. Az.
Max El.
End time (UTC)
End Az.
6 mins2024-12-13 22:50:00.161Z47.686° ENE2024-12-13 22:53:00.161Z97.042° ESE21.152°2024-12-13 22:56:00.161Z144.037° SSE
6 mins2024-12-14 00:26:00.161Z340.342° N2024-12-14 00:29:00.161Z276.968° WNW26.698°2024-12-14 00:32:00.161Z230.933° WSW
5 mins2024-12-14 11:17:00.161Z204.196° SW2024-12-14 11:19:00.161Z263.992° W34.373°2024-12-14 11:22:00.161Z328.755° NNW
|